Change the Weather History Date:

Saturday, August 9, 2014

  Actual Average Record
Temperature  
Mean Temperature 92 °F 92 °F  
Max Temperature 103 °F 103 °F 114 °F (1940)
Min Temperature 80 °F 80 °F 65 °F (1951)
Degree Days  
Heating Degree Days 0 0  
Month to date heating degree days 0 0  
Since 1 June heating degree days 0 1  
Since 1 July heating degree days 0 0  
Cooling Degree Days 27 27  
Month to date cooling degree days 204 244  
Year to date cooling degree days 2501 2298  
Since 1 June cooling degree days 1843 1748  
Growing Degree Days 41 (Base 50)    
Moisture  
Dew Point 43 °F    
Average Humidity 21    
Maximum Humidity 28    
Minimum Humidity 13    
Precipitation  
Precipitation 0.00 in 0.01 in 1.58 in (1942)
Month to date precipitation 0.35 0.11  
Year to date precipitation 0.87 2.59  
Snow  
Snow 0.00 in 0.00 in 0.00 in ()
Month to date snowfall 0.0 0.0  
Since 1 June snowfall 0.0 0.0  
Since 1 July snowfall 0.0 0.0  
Snow Depth 0.00 in    
Sea Level Pressure  
Sea Level Pressure 29.81 in    
Wind  
Wind Speed 9 mph (South)    
Max Wind Speed 18 mph    
Max Gust Speed 20 mph    
Visibility 10 miles    
Events      
T = Trace of Precipitation, MM = Missing Value Source: NWS Daily Summary

Daily Weather History Graph

Daily Weather History Graph

Search for Another Location

Airport or City:

Trip Planner

Search our weather history database for the weather conditions in past years. The results will help you decide how hot, cold, wet, or windy it might be!

Date:

Astronomy

Aug. 09, 2014 Rise Set
Actual Time 5:54 AM PDT 7:37 PM PDT
Civil Twilight 5:26 AM PDT 8:05 PM PDT
Nautical Twilight 4:53 AM PDT 8:38 PM PDT
Astronomical Twilight 4:17 AM PDT 9:13 PM PDT
Moon 6:43 PM PDT (8/9) 4:39 AM PDT (8/9)
Length of Visible Light 14h 38m
Length of Day
13h 43m
Waxing Gibbous, 99% of the Moon is Illuminated
Aug 9
Waxing Gibbous
Aug 10
Full
Aug 17
Last Quarter
Aug 25
New
Sep 2
First Quarter

Hourly Weather History & Observations

Time (PDT) Temp. Dew Point Humidity Pressure Visibility Wind Dir Wind Speed Gust Speed Precip Events Conditions
12:56 AM 86.0 °F 37.0 °F 18% 29.79 in 10.0 mi South 10.4 mph - N/A   Clear
1:56 AM 84.0 °F 39.0 °F 20% 29.79 in 10.0 mi South 9.2 mph - N/A   Clear
2:56 AM 84.0 °F 39.9 °F 21% 29.79 in 10.0 mi South 11.5 mph - N/A   Clear
3:56 AM 82.9 °F 42.1 °F 24% 29.80 in 10.0 mi South 13.8 mph - N/A   Clear
4:56 AM 82.0 °F 44.1 °F 26% 29.81 in 10.0 mi SSW 9.2 mph - N/A   Clear
5:56 AM 81.0 °F 44.1 °F 27% 29.84 in 10.0 mi SSW 15.0 mph - N/A   Clear
6:56 AM 82.0 °F 46.0 °F 28% 29.86 in 10.0 mi SSW 5.8 mph - N/A   Clear
7:56 AM 84.9 °F 44.1 °F 24% 29.88 in 10.0 mi SSW 4.6 mph - N/A   Clear
8:56 AM 88.0 °F 44.1 °F 22% 29.88 in 10.0 mi SSW 5.8 mph - N/A   Clear
9:56 AM 91.0 °F 46.0 °F 21% 29.88 in 10.0 mi South 6.9 mph - N/A   Clear
10:56 AM 93.0 °F 46.0 °F 20% 29.88 in 10.0 mi Calm Calm - N/A   Partly Cloudy
11:56 AM 96.1 °F 48.0 °F 19% 29.87 in 10.0 mi SE 8.1 mph - N/A   Partly Cloudy
12:56 PM 98.1 °F 46.0 °F 17% 29.85 in 10.0 mi SSW 13.8 mph 20.7 mph N/A   Clear
1:56 PM 100.0 °F 42.1 °F 14% 29.83 in 10.0 mi SE 8.1 mph 18.4 mph N/A   Partly Cloudy
2:56 PM 102.9 °F 41.0 °F 12% 29.79 in 10.0 mi Calm Calm - N/A   Partly Cloudy
3:56 PM 99.0 °F 44.1 °F 15% 29.77 in 10.0 mi South 8.1 mph - N/A   Partly Cloudy
4:56 PM 100.0 °F 43.0 °F 14% 29.75 in 10.0 mi South 5.8 mph - N/A   Partly Cloudy
5:56 PM 97.0 °F 46.0 °F 18% 29.75 in 10.0 mi SE 11.5 mph - N/A   Partly Cloudy
6:56 PM 99.0 °F 45.0 °F 16% 29.75 in 10.0 mi South 8.1 mph - N/A   Partly Cloudy
7:56 PM 98.1 °F 39.9 °F 13% 29.75 in 10.0 mi South 10.4 mph - N/A   Partly Cloudy
9:56 PM 93.9 °F 39.9 °F 15% 29.79 in 10.0 mi SSW 11.5 mph - N/A   Clear
10:56 PM 91.9 °F 39.9 °F 16% 29.80 in 10.0 mi South 12.7 mph - N/A   Clear
11:56 PM 90.0 °F 42.1 °F 19% 29.81 in 10.0 mi South 10.4 mph - N/A   Clear